AFV201 FAOR-FAPE

Flight info

Callsign AFV201
Flight time 1h 25m
Altitude 30000
Route OVALA UZ18 NEVEN UQ8 ALKAT DCT PEV
Aircraft B738/M-SDE2E3FGHIRWXY/LB1

Departure

Time 2026-04-24 08:35
Airport O.R. Tambo International Airport (FAOR)

Arrival

Time 2026-04-24 10:01
Airport Chief Dawid Stuurman International Airport (FAPE)
Time Latitude Longitude Altitude Speed Heading
2026-04-24 08:18 -26.13832 28.23126 5566 ft 0 kts 185°
2026-04-24 08:25 -26.13831 28.23126 5566 ft 1 kts 185°
2026-04-24 08:25 -26.13819 28.23127 5566 ft 2 kts 185°
2026-04-24 08:25 -26.13800 28.23129 5566 ft 3 kts 185°
2026-04-24 08:26 -26.13780 28.23131 5566 ft 3 kts 184°
2026-04-24 08:26 -26.13760 28.23129 5566 ft 3 kts 166°
2026-04-24 08:26 -26.13742 28.23120 5566 ft 3 kts 148°
2026-04-24 08:26 -26.13726 28.23106 5566 ft 3 kts 131°
2026-04-24 08:27 -26.13714 28.23087 5566 ft 3 kts 116°
2026-04-24 08:27 -26.13707 28.23065 5566 ft 3 kts 103°
2026-04-24 08:27 -26.13705 28.23050 5566 ft 0 kts 95°
2026-04-24 08:29 -26.13707 28.23057 5566 ft 5 kts 106°
2026-04-24 08:29 -26.13736 28.23106 5566 ft 10 kts 133°
2026-04-24 08:30 -26.13758 28.23166 5566 ft 6 kts 84°
2026-04-24 08:30 -26.13754 28.23225 5566 ft 11 kts 88°
2026-04-24 08:30 -26.13762 28.23302 5566 ft 5 kts 117°
2026-04-24 08:30 -26.13792 28.23327 5566 ft 8 kts 149°
2026-04-24 08:31 -26.13841 28.23349 5566 ft 6 kts 142°
2026-04-24 08:31 -26.13865 28.23402 5566 ft 11 kts 108°
2026-04-24 08:31 -26.13895 28.23496 5566 ft 14 kts 109°
2026-04-24 08:31 -26.13911 28.23545 5566 ft 0 kts 113°
2026-04-24 08:32 -26.13921 28.23590 5566 ft 11 kts 103°
2026-04-24 08:32 -26.13931 28.23649 5566 ft 4 kts 71°
2026-04-24 08:32 -26.13905 28.23664 5566 ft 0 kts 18°
2026-04-24 08:33 -26.13904 28.23664 5566 ft 0 kts 18°
2026-04-24 08:34 -26.13904 28.23665 5566 ft 0 kts 18°
2026-04-24 08:34 -26.13705 28.23732 5566 ft 64 kts 13°
2026-04-24 08:34 -26.13070 28.23919 5566 ft 123 kts 19°
2026-04-24 08:34 -26.12070 28.24229 5568 ft 173 kts 16°
2026-04-24 08:35 -26.10861 28.24598 5955 ft 191 kts 14°
2026-04-24 08:35 -26.09442 28.24959 6212 ft 227 kts 14°
2026-04-24 08:35 -26.07836 28.25385 6795 ft 243 kts 16°
2026-04-24 08:35 -26.06192 28.25823 7774 ft 240 kts 15°
2026-04-24 08:36 -26.04633 28.26242 8899 ft 228 kts 16°
2026-04-24 08:36 -26.03162 28.26790 9884 ft 221 kts 25°
2026-04-24 08:36 -26.01904 28.27785 10403 ft 228 kts 52°
2026-04-24 08:36 -26.01259 28.29406 10954 ft 240 kts 78°
2026-04-24 08:37 -26.01532 28.31276 11606 ft 253 kts 108°
2026-04-24 08:37 -26.02477 28.32881 12425 ft 239 kts 138°
2026-04-24 08:37 -26.03824 28.33877 13169 ft 234 kts 163°
2026-04-24 08:37 -26.05417 28.34285 13753 ft 235 kts 166°
2026-04-24 08:38 -26.06951 28.34713 14553 ft 232 kts 157°
2026-04-24 08:38 -26.08559 28.35278 14747 ft 253 kts 159°
2026-04-24 08:38 -26.10274 28.35812 15383 ft 252 kts 160°
2026-04-24 08:38 -26.11911 28.36413 16259 ft 244 kts 166°
2026-04-24 08:39 -26.13514 28.37020 16810 ft 246 kts 166°
2026-04-24 08:39 -26.15123 28.37658 17365 ft 243 kts 165°
2026-04-24 08:39 -26.16745 28.38299 17606 ft 255 kts 165°
2026-04-24 08:39 -26.18463 28.38972 17787 ft 269 kts 164°
2026-04-24 08:40 -26.20258 28.39669 17969 ft 284 kts 164°
2026-04-24 08:40 -26.22198 28.40418 18151 ft 299 kts 163°
2026-04-24 08:40 -26.24226 28.41195 18333 ft 315 kts 163°
2026-04-24 08:40 -26.26352 28.42007 18514 ft 331 kts 163°
2026-04-24 08:41 -26.28542 28.42840 18694 ft 347 kts 162°
2026-04-24 08:41 -26.30888 28.43730 18874 ft 363 kts 162°
2026-04-24 08:41 -26.33328 28.44653 19052 ft 378 kts 162°
2026-04-24 08:41 -26.35840 28.45602 19230 ft 392 kts 161°
2026-04-24 08:42 -26.38472 28.46595 19394 ft 405 kts 162°
2026-04-24 08:42 -26.41197 28.47618 19547 ft 418 kts 162°
2026-04-24 08:42 -26.43984 28.48664 19691 ft 431 kts 162°
2026-04-24 08:42 -26.46863 28.49746 19968 ft 438 kts 161°
2026-04-24 08:43 -26.49757 28.50834 20418 ft 440 kts 161°
2026-04-24 08:43 -26.52624 28.51909 20832 ft 443 kts 161°
2026-04-24 08:43 -26.55577 28.53018 21247 ft 446 kts 161°
2026-04-24 08:43 -26.58517 28.54124 21648 ft 449 kts 161°
2026-04-24 08:44 -26.61462 28.55234 22036 ft 452 kts 161°
2026-04-24 08:44 -26.64458 28.56364 22419 ft 454 kts 161°
2026-04-24 08:44 -26.67478 28.57505 22795 ft 457 kts 161°
2026-04-24 08:44 -26.70482 28.58640 23156 ft 460 kts 161°
2026-04-24 08:45 -26.73531 28.59794 23516 ft 462 kts 163°
2026-04-24 08:45 -26.76599 28.60836 23854 ft 462 kts 171°
2026-04-24 08:45 -26.79800 28.61090 24165 ft 459 kts 187°
2026-04-24 08:45 -26.82866 28.60439 24449 ft 455 kts 202°
2026-04-24 08:46 -26.85706 28.58958 24934 ft 444 kts 214°
2026-04-24 08:46 -26.88274 28.57093 25426 ft 440 kts 219°
2026-04-24 08:46 -26.90759 28.55072 25601 ft 445 kts 221°
2026-04-24 08:46 -26.93220 28.52962 25880 ft 447 kts 222°
2026-04-24 08:47 -26.95685 28.50829 26203 ft 448 kts 222°
2026-04-24 08:47 -26.98123 28.48715 26634 ft 446 kts 222°
2026-04-24 08:47 -27.00608 28.46558 27030 ft 446 kts 223°
2026-04-24 08:47 -27.03035 28.44449 27411 ft 446 kts 223°
2026-04-24 08:48 -27.05476 28.42326 27793 ft 445 kts 223°
2026-04-24 08:48 -27.07907 28.40210 28156 ft 445 kts 223°
2026-04-24 08:48 -27.10376 28.38067 28514 ft 446 kts 223°
2026-04-24 08:48 -27.12815 28.35951 28891 ft 445 kts 223°
2026-04-24 08:49 -27.15252 28.33833 29286 ft 444 kts 223°
2026-04-24 08:49 -27.17679 28.31721 29674 ft 443 kts 223°
2026-04-24 08:49 -27.20115 28.29599 29997 ft 444 kts 223°
2026-04-24 08:50 -27.25007 28.25341 30036 ft 446 kts 223°
2026-04-24 08:50 -27.29832 28.21132 30018 ft 432 kts 223°
2026-04-24 08:51 -27.34544 28.17007 30016 ft 424 kts 222°
2026-04-24 08:51 -27.39150 28.12966 30024 ft 418 kts 222°
2026-04-24 08:52 -27.43720 28.08954 30040 ft 413 kts 220°
2026-04-24 08:52 -27.48476 28.05407 30037 ft 411 kts 209°
2026-04-24 08:53 -27.53768 28.03054 30037 ft 411 kts 200°
2026-04-24 08:53 -27.59207 28.01098 30034 ft 410 kts 199°
2026-04-24 08:54 -27.64703 27.99145 30010 ft 419 kts 195°
2026-04-24 08:54 -27.70297 27.97168 30000 ft 427 kts 195°
2026-04-24 08:55 -27.75993 27.95157 29997 ft 430 kts 195°
2026-04-24 08:55 -27.81740 27.93121 29999 ft 436 kts 196°
2026-04-24 08:56 -27.87553 27.91057 29998 ft 440 kts 196°
2026-04-24 08:56 -27.93439 27.88965 30000 ft 452 kts 196°
2026-04-24 08:57 -27.98497 27.87167 30000 ft 462 kts 197°
2026-04-24 08:57 -28.04658 27.84914 29999 ft 473 kts 197°
2026-04-24 08:58 -28.12042 27.82189 29999 ft 476 kts 197°
2026-04-24 08:58 -28.18312 27.79873 30037 ft 474 kts 197°
2026-04-24 08:59 -28.23515 27.77957 30066 ft 474 kts 197°
2026-04-24 08:59 -28.29775 27.75646 30100 ft 472 kts 197°
2026-04-24 09:00 -28.36015 27.73335 30125 ft 470 kts 196°
2026-04-24 09:00 -28.42170 27.71050 30145 ft 467 kts 196°
2026-04-24 09:01 -28.48338 27.68759 30169 ft 461 kts 197°
2026-04-24 09:01 -28.54358 27.66521 30194 ft 455 kts 197°
2026-04-24 09:02 -28.60334 27.64298 30226 ft 450 kts 198°
2026-04-24 09:02 -28.67236 27.61724 30257 ft 448 kts 200°
2026-04-24 09:03 -28.72215 27.59864 30281 ft 451 kts 200°
2026-04-24 09:03 -28.78185 27.57632 30306 ft 455 kts 201°
2026-04-24 09:04 -28.84229 27.55370 30322 ft 459 kts 202°
2026-04-24 09:04 -28.90348 27.53087 30346 ft 468 kts 202°
2026-04-24 09:05 -28.96592 27.50751 30369 ft 477 kts 202°
2026-04-24 09:05 -29.02915 27.48381 30386 ft 486 kts 202°
2026-04-24 09:06 -29.09380 27.45953 30401 ft 493 kts 202°
2026-04-24 09:06 -29.15907 27.43499 30407 ft 494 kts 202°
2026-04-24 09:07 -29.22429 27.41042 30407 ft 492 kts 202°
2026-04-24 09:07 -29.32122 27.37385 30407 ft 491 kts 202°
2026-04-24 09:08 -29.38613 27.34932 30407 ft 490 kts 202°
2026-04-24 09:08 -29.45106 27.32475 30408 ft 490 kts 202°
2026-04-24 09:09 -29.51526 27.30042 30407 ft 490 kts 202°
2026-04-24 09:09 -29.58024 27.27575 30408 ft 494 kts 202°
2026-04-24 09:10 -29.64555 27.25094 30407 ft 493 kts 202°
2026-04-24 09:10 -29.71073 27.22613 30407 ft 493 kts 202°
2026-04-24 09:11 -29.77570 27.20137 30407 ft 492 kts 202°
2026-04-24 09:11 -29.84072 27.17656 30407 ft 493 kts 202°
2026-04-24 09:12 -29.90586 27.15167 30407 ft 492 kts 202°
2026-04-24 09:12 -29.97018 27.12706 30407 ft 491 kts 202°
2026-04-24 09:13 -30.03513 27.10217 30407 ft 491 kts 202°
2026-04-24 09:13 -30.09993 27.07731 30407 ft 490 kts 202°
2026-04-24 09:14 -30.16447 27.05251 30407 ft 489 kts 202°
2026-04-24 09:14 -30.22912 27.02763 30407 ft 490 kts 202°
2026-04-24 09:15 -30.29343 27.00285 30407 ft 491 kts 202°
2026-04-24 09:15 -30.35821 26.97785 30407 ft 491 kts 202°
2026-04-24 09:16 -30.42301 26.95282 30407 ft 492 kts 202°
2026-04-24 09:16 -30.48802 26.92770 30407 ft 493 kts 202°
2026-04-24 09:17 -30.55302 26.90255 30407 ft 493 kts 202°
2026-04-24 09:17 -30.61807 26.87729 30407 ft 493 kts 202°
2026-04-24 09:18 -30.68315 26.85196 30407 ft 493 kts 202°
2026-04-24 09:18 -30.74785 26.82677 30407 ft 493 kts 202°
2026-04-24 09:19 -30.81276 26.80147 30407 ft 492 kts 202°
2026-04-24 09:19 -30.87780 26.77610 30407 ft 493 kts 202°
2026-04-24 09:20 -30.95335 26.74655 30407 ft 492 kts 202°
2026-04-24 09:20 -31.00753 26.72532 30407 ft 491 kts 203°
2026-04-24 09:21 -31.07190 26.70007 30407 ft 492 kts 202°
2026-04-24 09:21 -31.13672 26.67470 30407 ft 492 kts 202°
2026-04-24 09:22 -31.20155 26.64928 30407 ft 490 kts 203°
2026-04-24 09:22 -31.26632 26.62387 30578 ft 491 kts 203°
2026-04-24 09:23 -31.29827 26.61132 30795 ft 490 kts 203°
2026-04-24 09:23 -31.33094 26.59845 30989 ft 490 kts 203°
2026-04-24 09:23 -31.36292 26.58583 31159 ft 490 kts 203°
2026-04-24 09:23 -31.39501 26.57315 31396 ft 487 kts 203°
2026-04-24 09:24 -31.42692 26.56054 31717 ft 485 kts 203°
2026-04-24 09:24 -31.45897 26.54784 31827 ft 486 kts 204°
2026-04-24 09:24 -31.49090 26.53517 32117 ft 483 kts 204°
2026-04-24 09:24 -31.52291 26.52250 32270 ft 484 kts 204°
2026-04-24 09:25 -31.55471 26.50991 32419 ft 484 kts 204°
2026-04-24 09:25 -31.58668 26.49724 32563 ft 484 kts 204°
2026-04-24 09:25 -31.61819 26.48471 32737 ft 484 kts 204°
2026-04-24 09:25 -31.65002 26.47204 32889 ft 484 kts 204°
2026-04-24 09:26 -31.68194 26.45941 33108 ft 483 kts 204°
2026-04-24 09:26 -31.71386 26.44674 33228 ft 484 kts 204°
2026-04-24 09:26 -31.74574 26.43406 33387 ft 484 kts 204°
2026-04-24 09:26 -31.77763 26.42134 33544 ft 484 kts 204°
2026-04-24 09:27 -31.80954 26.40860 33692 ft 484 kts 204°
2026-04-24 09:27 -31.84091 26.39607 33865 ft 484 kts 204°
2026-04-24 09:27 -31.87313 26.38317 34041 ft 483 kts 204°
2026-04-24 09:27 -31.90466 26.37055 34175 ft 484 kts 204°
2026-04-24 09:28 -31.96841 26.34502 34383 ft 486 kts 204°
2026-04-24 09:28 -32.00051 26.33217 34484 ft 487 kts 204°
2026-04-24 09:28 -32.03273 26.31925 34532 ft 490 kts 204°
2026-04-24 09:29 -32.09743 26.29329 34218 ft 490 kts 204°
2026-04-24 09:29 -32.12970 26.28041 33678 ft 485 kts 204°
2026-04-24 09:29 -32.16122 26.26776 32958 ft 486 kts 204°
2026-04-24 09:30 -32.19304 26.25498 32493 ft 477 kts 204°
2026-04-24 09:30 -32.23390 26.23853 32378 ft 451 kts 204°
2026-04-24 09:30 -32.25324 26.23073 32320 ft 439 kts 204°
2026-04-24 09:30 -32.28153 26.21931 32234 ft 422 kts 204°
2026-04-24 09:31 -32.30893 26.20823 32155 ft 405 kts 205°
2026-04-24 09:31 -32.33492 26.19773 32073 ft 391 kts 205°
2026-04-24 09:31 -32.36033 26.18745 31947 ft 378 kts 205°
2026-04-24 09:31 -32.38508 26.17745 31540 ft 373 kts 205°
2026-04-24 09:32 -32.40947 26.16759 31141 ft 369 kts 205°
2026-04-24 09:32 -32.43335 26.15793 30744 ft 365 kts 205°
2026-04-24 09:32 -32.45761 26.14812 30339 ft 364 kts 205°
2026-04-24 09:32 -32.48132 26.13851 29945 ft 366 kts 205°
2026-04-24 09:33 -32.50539 26.12875 29548 ft 369 kts 204°
2026-04-24 09:33 -32.52984 26.11885 29148 ft 372 kts 204°
2026-04-24 09:33 -32.55444 26.10893 28749 ft 375 kts 204°
2026-04-24 09:33 -32.57918 26.09893 28282 ft 377 kts 204°
2026-04-24 09:34 -32.60399 26.08887 27783 ft 377 kts 204°
2026-04-24 09:34 -32.62859 26.07888 27287 ft 377 kts 204°
2026-04-24 09:34 -32.65374 26.06865 26780 ft 377 kts 204°
2026-04-24 09:34 -32.67822 26.05868 26287 ft 378 kts 203°
2026-04-24 09:35 -32.70297 26.04860 25787 ft 376 kts 203°
2026-04-24 09:35 -32.72750 26.03859 25289 ft 373 kts 203°
2026-04-24 09:35 -32.75196 26.02862 24787 ft 370 kts 203°
2026-04-24 09:35 -32.77622 26.01871 24287 ft 368 kts 203°
2026-04-24 09:36 -32.80049 26.00881 23784 ft 366 kts 203°
2026-04-24 09:36 -32.82454 25.99898 23283 ft 364 kts 203°
2026-04-24 09:36 -32.84829 25.98929 22784 ft 361 kts 203°
2026-04-24 09:36 -32.87164 25.97977 22290 ft 358 kts 203°
2026-04-24 09:37 -32.89503 25.97027 21791 ft 356 kts 203°
2026-04-24 09:37 -32.91850 25.96073 21288 ft 353 kts 203°
2026-04-24 09:37 -32.94151 25.95134 20790 ft 351 kts 203°
2026-04-24 09:37 -32.96447 25.94196 20291 ft 349 kts 203°
2026-04-24 09:38 -32.98749 25.93254 19787 ft 346 kts 203°
2026-04-24 09:38 -33.01019 25.92325 19286 ft 344 kts 203°
2026-04-24 09:38 -33.03274 25.91400 18786 ft 342 kts 203°
2026-04-24 09:38 -33.04720 25.90807 18464 ft 341 kts 203°
2026-04-24 09:39 -33.06784 25.89960 18003 ft 340 kts 203°
2026-04-24 09:39 -33.09016 25.89043 17502 ft 339 kts 202°
2026-04-24 09:39 -33.11220 25.88138 17006 ft 338 kts 202°
2026-04-24 09:39 -33.13441 25.87225 16506 ft 337 kts 201°
2026-04-24 09:40 -33.15650 25.86318 16007 ft 337 kts 201°
2026-04-24 09:40 -33.17871 25.85404 15504 ft 336 kts 200°
2026-04-24 09:40 -33.20097 25.84616 15007 ft 336 kts 196°
2026-04-24 09:40 -33.22369 25.83913 14504 ft 335 kts 194°
2026-04-24 09:41 -33.24621 25.83250 14006 ft 334 kts 194°
2026-04-24 09:41 -33.26877 25.82583 13506 ft 333 kts 195°
2026-04-24 09:41 -33.29121 25.81916 13006 ft 333 kts 195°
2026-04-24 09:41 -33.31375 25.81243 12503 ft 331 kts 195°
2026-04-24 09:42 -33.33606 25.80573 12003 ft 330 kts 196°
2026-04-24 09:42 -33.35831 25.79904 11503 ft 329 kts 196°
2026-04-24 09:42 -33.38021 25.79244 11008 ft 328 kts 196°
2026-04-24 09:42 -33.40227 25.78578 10523 ft 326 kts 197°
2026-04-24 09:43 -33.42407 25.77919 10374 ft 313 kts 197°
2026-04-24 09:43 -33.44480 25.77291 10310 ft 302 kts 197°
2026-04-24 09:43 -33.46476 25.76685 10303 ft 297 kts 197°
2026-04-24 09:43 -33.48481 25.76077 10307 ft 298 kts 197°
2026-04-24 09:44 -33.50492 25.75466 10308 ft 301 kts 197°
2026-04-24 09:44 -33.52533 25.74848 10307 ft 302 kts 197°
2026-04-24 09:44 -33.54565 25.74233 10307 ft 302 kts 197°
2026-04-24 09:44 -33.56599 25.73617 10307 ft 302 kts 197°
2026-04-24 09:45 -33.58638 25.72998 10257 ft 302 kts 197°
2026-04-24 09:45 -33.60665 25.72382 10018 ft 298 kts 197°
2026-04-24 09:45 -33.62665 25.71774 9666 ft 294 kts 196°
2026-04-24 09:45 -33.64622 25.71178 9317 ft 290 kts 195°
2026-04-24 09:46 -33.66573 25.70583 8964 ft 286 kts 195°
2026-04-24 09:46 -33.68304 25.70057 8646 ft 282 kts 194°
2026-04-24 09:46 -33.70201 25.69481 8295 ft 279 kts 194°
2026-04-24 09:46 -33.72047 25.68919 7948 ft 275 kts 193°
2026-04-24 09:47 -33.72981 25.68546 7736 ft 275 kts 205°
2026-04-24 09:47 -33.74247 25.67319 7438 ft 270 kts 230°
2026-04-24 09:47 -33.75332 25.65519 7105 ft 265 kts 237°
2026-04-24 09:48 -33.76315 25.63652 6753 ft 262 kts 238°
2026-04-24 09:48 -33.77270 25.61811 6404 ft 259 kts 238°
2026-04-24 09:48 -33.78222 25.59977 6051 ft 256 kts 238°
2026-04-24 09:48 -33.79153 25.58184 5703 ft 253 kts 239°
2026-04-24 09:49 -33.80075 25.56407 5353 ft 250 kts 238°
2026-04-24 09:49 -33.81004 25.54618 4998 ft 248 kts 239°
2026-04-24 09:49 -33.81901 25.52892 4652 ft 245 kts 239°
2026-04-24 09:49 -33.82810 25.51140 4382 ft 239 kts 239°
2026-04-24 09:50 -33.83653 25.49511 4310 ft 230 kts 239°
2026-04-24 09:50 -33.84501 25.47876 4291 ft 224 kts 238°
2026-04-24 09:50 -33.85309 25.46319 4292 ft 222 kts 238°
2026-04-24 09:50 -33.86130 25.44735 4306 ft 226 kts 238°
2026-04-24 09:51 -33.86968 25.43120 4312 ft 229 kts 239°
2026-04-24 09:51 -33.87808 25.41504 4307 ft 227 kts 239°
2026-04-24 09:51 -33.88644 25.39890 4315 ft 229 kts 238°
2026-04-24 09:51 -33.89495 25.38254 4308 ft 229 kts 238°
2026-04-24 09:52 -33.90334 25.36635 4359 ft 229 kts 237°
2026-04-24 09:52 -33.91167 25.35031 4347 ft 228 kts 238°
2026-04-24 09:52 -33.92007 25.33414 4333 ft 228 kts 239°
2026-04-24 09:52 -33.92858 25.31801 4317 ft 228 kts 236°
2026-04-24 09:53 -33.94124 25.30686 4242 ft 230 kts 197°
2026-04-24 09:53 -33.95656 25.30741 4294 ft 217 kts 158°
2026-04-24 09:53 -33.97001 25.31545 4368 ft 219 kts 147°
2026-04-24 09:53 -33.98312 25.32508 4351 ft 222 kts 144°
2026-04-24 09:54 -33.99623 25.33494 4305 ft 220 kts 144°
2026-04-24 09:54 -34.00907 25.34462 4176 ft 221 kts 144°
2026-04-24 09:54 -34.02212 25.35447 3887 ft 220 kts 144°
2026-04-24 09:54 -34.03489 25.36413 3581 ft 215 kts 144°
2026-04-24 09:55 -34.04741 25.37360 3296 ft 208 kts 144°
2026-04-24 09:55 -34.05940 25.38266 3075 ft 196 kts 144°
2026-04-24 09:55 -34.07047 25.39104 2992 ft 180 kts 143°
2026-04-24 09:55 -34.07825 25.40167 2839 ft 167 kts 111°
2026-04-24 09:56 -34.07983 25.41490 2949 ft 159 kts 88°
2026-04-24 09:56 -34.07787 25.42838 3094 ft 165 kts 71°
2026-04-24 09:56 -34.07357 25.44091 3098 ft 161 kts 63°
2026-04-24 09:56 -34.06869 25.45306 3032 ft 163 kts 63°
2026-04-24 09:57 -34.06333 25.46517 2822 ft 163 kts 59°
2026-04-24 09:57 -34.05758 25.47687 2603 ft 163 kts 58°
2026-04-24 09:57 -34.05172 25.48835 2407 ft 158 kts 57°
2026-04-24 09:57 -34.04608 25.49930 2189 ft 149 kts 57°
2026-04-24 09:58 -34.04075 25.50962 1974 ft 141 kts 58°
2026-04-24 09:58 -34.03570 25.51936 1795 ft 137 kts 58°
2026-04-24 09:58 -34.03062 25.52916 1628 ft 139 kts 58°
2026-04-24 09:58 -34.02557 25.53890 1441 ft 138 kts 57°
2026-04-24 09:59 -34.02057 25.54854 1259 ft 134 kts 57°
2026-04-24 09:59 -34.01571 25.55791 1081 ft 130 kts 57°
2026-04-24 09:59 -34.01098 25.56701 912 ft 126 kts 57°
2026-04-24 09:59 -34.00639 25.57586 742 ft 123 kts 56°
2026-04-24 10:00 -34.00199 25.58440 575 ft 121 kts 57°
2026-04-24 10:00 -33.99756 25.59299 404 ft 118 kts 56°
2026-04-24 10:00 -33.99319 25.60128 269 ft 116 kts 57°
2026-04-24 10:00 -33.98951 25.60852 234 ft 74 kts 55°
2026-04-24 10:01 -33.98839 25.61061 234 ft 17 kts 63°
2026-04-24 10:01 -33.98737 25.61245 234 ft 33 kts 58°
2026-04-24 10:01 -33.98608 25.61498 234 ft 35 kts 58°
2026-04-24 10:01 -33.98516 25.61656 234 ft 0 kts 52°
2026-04-24 10:02 -33.98505 25.61671 234 ft 10 kts 47°
2026-04-24 10:02 -33.98436 25.61667 234 ft 9 kts 334°
2026-04-24 10:02 -33.98391 25.61643 234 ft 4 kts 334°
2026-04-24 10:02 -33.98376 25.61632 234 ft 3 kts 329°
2026-04-24 10:03 -33.98340 25.61606 234 ft 1 kts 320°
2026-04-24 10:03 -33.98339 25.61587 234 ft 7 kts 249°
2026-04-24 10:03 -33.98371 25.61535 234 ft 6 kts 223°
2026-04-24 10:03 -33.98389 25.61477 234 ft 11 kts 261°
2026-04-24 10:04 -33.98402 25.61418 234 ft 4 kts 241°
2026-04-24 10:04 -33.98410 25.61402 234 ft 1 kts 243°
2026-04-24 10:04 -33.98397 25.61369 234 ft 6 kts 322°
2026-04-24 10:04 -33.98390 25.61362 234 ft 1 kts 322°
2026-04-24 10:05 -33.98386 25.61358 234 ft 0 kts 322°